Weather History for KSPS - April, 2013

Change the Weather History Date:

Saturday, April 20, 2013

  Actual Average Record
Temperature  
Mean Temperature 58 °F 64 °F  
Max Temperature 72 °F 77 °F 95 °F (1925)
Min Temperature 43 °F 51 °F 36 °F (1953)
Degree Days  
Heating Degree Days 7 4  
Month to date heating degree days 175 115  
Since 1 July heating degree days 2752 2918  
Cooling Degree Days 0 3  
Month to date cooling degree days 29 37  
Year to date cooling degree days 49 59  
Growing Degree Days 8 (Base 50)    
Moisture  
Dew Point 28 °F    
Average Humidity 37    
Maximum Humidity 58    
Minimum Humidity 16    
Precipitation  
Precipitation 0.00 in 0.09 in 1.94 in (1957)
Month to date precipitation 2.43 1.49  
Year to date precipitation 5.64 6.58  
Snow  
Snow 0.00 in 0.00 in - ()
Month to date snowfall T 0.0  
Since 1 July snowfall 3.5 3.9  
Snow Depth -    
Sea Level Pressure  
Sea Level Pressure 30.03 in    
Wind  
Wind Speed 18 mph (SSE)    
Max Wind Speed 33 mph    
Max Gust Speed 41 mph    
Visibility 10 miles    
Events      
T = Trace of Precipitation, MM = Missing Value Source: NWS Daily Summary

Daily Weather History Graph

Daily Weather History Graph

Search for Another Location

Airport or City:

Trip Planner

Search our weather history database for the weather conditions in past years. The results will help you decide how hot, cold, wet, or windy it might be!

Date:

Astronomy

Apr. 20, 2013 Rise Set
Actual Time 6:56 AM CDT 8:09 PM CDT
Civil Twilight 6:30 AM CDT 8:35 PM CDT
Nautical Twilight 5:59 AM CDT 9:06 PM CDT
Astronomical Twilight 5:27 AM CDT 9:38 PM CDT
Moon 3:08 PM CDT (4/20) 3:32 AM CDT (4/20)
Length of Visible Light 14h 04m
Length of Day
13h 12m
Waxing Gibbous, 71% of the Moon is Illuminated
Apr 20
Waxing Gibbous
Apr 25
Full
May 2
Last Quarter
May 9
New
May 17
First Quarter

Hourly Weather History & Observations

Time (CDT) Temp. Windchill Dew Point Humidity Pressure Visibility Wind Dir Wind Speed Gust Speed Precip Events Conditions
12:52 AM 48.9 °F - 30.9 °F 50% 30.10 in 10.0 mi South 12.7 mph - N/A   Clear
1:52 AM 46.9 °F - 30.0 °F 52% 30.09 in 10.0 mi South 11.5 mph - N/A   Clear
2:52 AM 46.9 °F - 28.9 °F 50% 30.08 in 10.0 mi South 10.4 mph - N/A   Clear
3:52 AM 46.0 °F 41.0 °F 28.9 °F 51% 30.08 in 10.0 mi South 10.4 mph - N/A   Clear
4:52 AM 45.0 °F 39.3 °F 30.9 °F 58% 30.07 in 10.0 mi South 11.5 mph - N/A   Clear
5:52 AM 45.0 °F 38.5 °F 30.9 °F 58% 30.06 in 10.0 mi South 13.8 mph - N/A   Clear
6:52 AM 45.0 °F 38.9 °F 30.0 °F 56% 30.07 in 10.0 mi South 12.7 mph - N/A   Clear
7:52 AM 46.9 °F - 30.9 °F 54% 30.09 in 10.0 mi South 12.7 mph - N/A   Clear
8:52 AM 53.1 °F - 30.9 °F 43% 30.11 in 10.0 mi South 19.6 mph 25.3 mph N/A   Clear
9:52 AM 60.1 °F - 30.0 °F 32% 30.10 in 10.0 mi South 17.3 mph - N/A   Clear
10:52 AM 64.9 °F - 25.0 °F 22% 30.09 in 10.0 mi South 21.9 mph 33.4 mph N/A   Clear
11:52 AM 68.0 °F - 24.1 °F 19% 30.06 in 10.0 mi South 28.8 mph 38.0 mph N/A   Clear
12:52 PM 70.0 °F - 24.1 °F 18% 30.03 in 10.0 mi South 27.6 mph 35.7 mph N/A   Clear
1:52 PM 71.1 °F - 23.0 °F 16% 30.00 in 10.0 mi SSE 27.6 mph 36.8 mph N/A   Clear
2:52 PM 71.1 °F - 25.0 °F 18% 29.99 in 10.0 mi SSE 27.6 mph 41.4 mph N/A   Clear
3:52 PM 72.0 °F - 26.1 °F 18% 29.96 in 10.0 mi SE 23.0 mph 32.2 mph N/A   Clear
4:52 PM 71.1 °F - 26.1 °F 19% 29.94 in 10.0 mi SSE 24.2 mph 36.8 mph N/A   Clear
5:52 PM 70.0 °F - 25.0 °F 18% 29.93 in 10.0 mi SSE 23.0 mph 33.4 mph N/A   Clear
6:52 PM 68.0 °F - 24.1 °F 19% 29.94 in 10.0 mi SSE 24.2 mph 29.9 mph N/A   Clear
7:52 PM 64.0 °F - 28.0 °F 26% 29.95 in 10.0 mi SE 19.6 mph 26.5 mph N/A   Clear
8:52 PM 61.0 °F - 30.0 °F 31% 29.97 in 10.0 mi SE 16.1 mph - N/A   Clear
9:52 PM 59.0 °F - 30.9 °F 35% 29.99 in 10.0 mi SE 17.3 mph - N/A   Clear
10:52 PM 57.0 °F - 32.0 °F 39% 29.99 in 10.0 mi SE 17.3 mph - N/A   Clear
11:52 PM 54.0 °F - 33.1 °F 45% 30.00 in 10.0 mi SE 11.5 mph - N/A   Clear